Radiation Dose at Monitoring Post of Fukushima Daini Nuclear Power Station
Date,Time,MP-1(microSv/h),MP-2(microSv/h),MP-3(microSv/h),MP-4(microSv/h),MP-5(microSv/h),MP-6(microSv/h),MP-7(microSv/h),Wind Direction,Wind Velocity(m/s),Rain
2015/02/04,00:00,0.505,0.359,0.588,0.535,-,0.252,0.227,west-northwest,4.0,No
2015/02/04,00:10,0.505,0.360,0.587,0.535,-,0.251,0.228,west-northwest,5.6,No
2015/02/04,00:20,0.505,0.361,0.587,0.536,-,0.252,0.226,west-northwest,4.8,No
2015/02/04,00:30,0.506,0.359,0.588,0.534,-,0.251,0.228,west-northwest,2.3,No
2015/02/04,00:40,0.505,0.359,0.586,0.535,-,0.252,0.227,west-northwest,2.5,No
2015/02/04,00:50,0.506,0.359,0.586,0.535,-,0.251,0.228,northwest,1.6,No
2015/02/04,01:00,0.507,0.359,0.588,0.534,-,0.251,0.226,north-northwest,2.4,No
2015/02/04,01:10,0.508,0.359,0.586,0.536,-,0.251,0.228,northwest,2.6,No
2015/02/04,01:20,0.503,0.360,0.587,0.534,-,0.252,0.227,west,3.4,No
2015/02/04,01:30,0.506,0.359,0.587,0.536,-,0.252,0.227,west-northwest,3.4,No
2015/02/04,01:40,0.506,0.359,0.588,0.536,-,0.252,0.227,west,5.7,No
2015/02/04,01:50,0.506,0.360,0.589,0.535,-,0.251,0.226,west,5.5,No
2015/02/04,02:00,0.507,0.360,0.589,0.534,-,0.252,0.228,west-northwest,2.2,No
2015/02/04,02:10,0.505,0.359,0.587,0.534,-,0.253,0.226,northwest,3.3,No
2015/02/04,02:20,0.507,0.360,0.588,0.536,-,0.251,0.226,north-northeast,2.2,No
2015/02/04,02:30,0.507,0.360,0.587,0.537,-,0.253,0.228,north,1.6,No
2015/02/04,02:40,0.506,0.359,0.587,0.536,-,0.252,0.228,north-northwest,0.7,No
2015/02/04,02:50,0.506,0.359,0.588,0.535,-,0.250,0.227,north-northwest,1.0,No
2015/02/04,03:00,0.506,0.360,0.588,0.535,-,0.252,0.228,north-northwest,1.3,No
2015/02/04,03:10,0.505,0.359,0.589,0.538,-,0.252,0.227,north-northwest,2.4,No
2015/02/04,03:20,0.505,0.359,0.588,0.535,-,0.253,0.228,north-northwest,3.1,No
2015/02/04,03:30,0.505,0.358,0.589,0.536,-,0.253,0.228,northwest,2.5,No
2015/02/04,03:40,0.506,0.359,0.589,0.537,-,0.252,0.228,north-northwest,2.4,No
2015/02/04,03:50,0.507,0.360,0.588,0.536,-,0.252,0.228,north-northwest,1.8,No
2015/02/04,04:00,0.504,0.359,0.589,0.536,-,0.251,0.227,northwest,1.4,No
2015/02/04,04:10,0.507,0.359,0.585,0.536,-,0.252,0.228,northwest,1.0,No
2015/02/04,04:20,0.506,0.360,0.588,0.536,-,0.250,0.227,west-northwest,1.3,No
2015/02/04,04:30,0.507,0.360,0.589,0.536,-,0.252,0.227,northwest,0.8,No
2015/02/04,04:40,0.507,0.359,0.587,0.536,-,0.251,0.227,west-northwest,0.6,No
2015/02/04,04:50,0.506,0.360,0.587,0.537,-,0.252,0.228,west,1.1,No
2015/02/04,05:00,0.506,0.359,0.588,0.537,-,0.251,0.229,northwest,0.6,No
2015/02/04,05:10,0.508,0.360,0.588,0.536,-,0.251,0.228,-,CALM,No
2015/02/04,05:20,0.505,0.360,0.588,0.536,-,0.251,0.226,northwest,0.5,No
2015/02/04,05:30,0.505,0.360,0.587,0.536,-,0.251,0.227,west-northwest,1.1,No
2015/02/04,05:40,0.505,0.359,0.589,0.536,-,0.251,0.227,west-northwest,1.3,No
2015/02/04,05:50,0.508,0.360,0.587,0.537,-,0.251,0.228,northwest,1.3,No
2015/02/04,06:00,0.507,0.360,0.588,0.535,-,0.253,0.227,north-northwest,1.1,No
2015/02/04,06:10,0.507,0.360,0.588,0.537,-,0.252,0.227,north-northwest,0.6,No
2015/02/04,06:20,0.506,0.359,0.588,0.537,-,0.251,0.227,north-northwest,0.6,No
2015/02/04,06:30,0.507,0.359,0.589,0.536,-,0.250,0.227,north,1.4,No
2015/02/04,06:40,0.508,0.358,0.589,0.537,-,0.252,0.227,north,1.9,No
2015/02/04,06:50,0.506,0.360,0.589,0.537,-,0.252,0.227,north-northwest,2.1,No
2015/02/04,07:00,0.509,0.360,0.588,0.536,-,0.253,0.226,north-northwest,1.8,No
2015/02/04,07:10,0.508,0.360,0.588,0.537,-,0.252,0.227,northwest,2.7,No
2015/02/04,07:20,0.509,0.359,0.588,0.537,-,0.252,0.228,north-northwest,3.4,No
2015/02/04,07:30,0.507,0.360,0.589,0.538,-,0.251,0.227,north-northwest,2.4,No
2015/02/04,07:40,0.508,0.361,0.588,0.537,-,0.251,0.227,northwest,2.8,No
2015/02/04,07:50,0.506,0.360,0.588,0.537,-,0.252,0.226,northwest,2.4,No
2015/02/04,08:00,0.507,0.360,0.590,0.536,-,0.251,0.227,north-northwest,1.4,No
2015/02/04,08:10,0.506,0.359,0.589,0.537,-,0.252,0.227,northwest,1.7,No
2015/02/04,08:20,0.508,0.359,0.588,0.537,-,0.251,0.227,north-northwest,0.6,No
2015/02/04,08:30,0.508,0.360,0.588,0.538,-,0.252,0.226,west-northwest,0.6,No
2015/02/04,08:40,0.506,0.359,0.590,0.537,-,0.251,0.228,northwest,1.3,No
2015/02/04,08:50,0.507,0.360,0.589,0.537,-,0.252,0.227,north-northwest,1.0,No
2015/02/04,09:00,0.508,0.360,0.588,0.537,-,0.252,0.228,north-northwest,1.1,No
2015/02/04,09:10,0.508,0.359,0.589,0.537,-,0.252,0.228,north-northwest,1.1,No
2015/02/04,09:20,0.508,0.361,0.589,0.537,-,0.250,0.228,north-northwest,1.2,No
2015/02/04,09:30,0.510,0.358,0.589,0.538,-,0.252,0.226,north,1.6,No
2015/02/04,09:40,0.498,0.361,0.592,0.536,-,0.252,0.227,north,2.3,No
2015/02/04,09:50,0.492,0.360,0.590,0.538,-,0.252,0.228,north,3.1,No
2015/02/04,10:00,0.481,0.361,0.589,0.538,-,0.251,0.227,north,1.7,No
2015/02/04,10:10,0.496,0.362,0.590,0.538,-,0.252,0.228,north,1.7,No
2015/02/04,10:20,0.505,0.362,0.590,0.538,-,0.251,0.228,northeast,2.0,No
2015/02/04,10:30,0.509,0.359,0.592,0.537,-,0.252,0.228,northeast,2.0,No
2015/02/04,10:40,0.508,0.337,0.589,0.540,-,0.252,0.227,northeast,1.4,No
2015/02/04,10:50,0.506,0.354,0.590,0.538,-,0.253,0.227,north-northeast,1.4,No
2015/02/04,11:00,0.504,0.361,0.590,0.539,-,0.253,0.227,northeast,1.4,No
2015/02/04,11:10,0.508,0.361,0.590,0.539,-,0.251,0.228,north-northeast,2.0,No
2015/02/04,11:20,0.507,0.359,0.567,0.539,-,0.253,0.227,north-northeast,2.0,No
2015/02/04,11:30,0.512,0.361,0.578,0.539,-,0.252,0.228,north-northeast,2.1,No
2015/02/04,11:40,0.512,0.361,0.590,0.540,-,0.252,0.228,northeast,2.7,No
2015/02/04,11:50,0.509,0.361,0.590,0.538,-,0.253,0.227,northeast,2.8,No
2015/02/04,12:00,0.511,0.362,0.592,0.539,-,0.253,0.228,north-northeast,2.3,No
2015/02/04,12:10,0.510,0.360,0.592,0.539,-,0.254,0.227,northeast,3.2,No
2015/02/04,12:20,0.508,0.361,0.593,0.539,-,0.253,0.227,north,3.6,No
2015/02/04,12:30,0.511,0.362,0.592,0.540,-,0.252,0.227,north-northeast,3.6,No
2015/02/04,12:40,0.509,0.362,0.592,0.540,-,0.252,0.228,north-northeast,2.9,No
2015/02/04,12:50,0.509,0.363,0.592,0.540,-,0.252,0.226,north-northeast,3.1,No
2015/02/04,13:00,0.510,0.362,0.592,0.542,-,0.253,0.226,northeast,2.8,No
2015/02/04,13:10,0.510,0.363,0.593,0.540,-,0.252,0.227,northeast,3.4,No
2015/02/04,13:20,0.510,0.362,0.593,0.539,-,0.252,0.229,north-northeast,1.6,No
2015/02/04,13:30,0.514,0.362,0.591,0.541,-,0.252,0.227,northeast,2.5,No
2015/02/04,13:40,0.512,0.362,0.593,0.540,-,0.252,0.230,north-northeast,1.9,No
2015/02/04,13:50,0.511,0.363,0.594,0.517,-,0.252,0.228,east-northeast,1.7,No
2015/02/04,14:00,0.511,0.362,0.594,0.503,-,0.252,0.228,east-northeast,2.3,No
2015/02/04,14:10,0.512,0.362,0.594,0.532,-,0.253,0.228,east-northeast,1.3,No
2015/02/04,14:20,0.512,0.362,0.594,0.542,-,0.253,0.227,east-northeast,2.8,No
2015/02/04,14:30,0.513,0.363,0.594,0.543,-,0.253,0.227,east-northeast,1.0,No
2015/02/04,14:40,0.512,0.362,0.595,0.542,-,0.254,0.229,east-northeast,0.6,No
2015/02/04,14:50,0.512,0.362,0.594,0.543,-,0.254,0.228,northeast,2.0,No
2015/02/04,15:00,0.513,0.362,0.594,0.542,-,0.254,0.228,-,CALM,No
2015/02/04,15:10,0.513,0.362,0.595,0.542,-,0.253,0.227,east-northeast,0.8,No
2015/02/04,15:20,0.513,0.362,0.596,0.541,-,0.253,0.228,east,1.0,No
2015/02/04,15:30,0.515,0.362,0.594,0.543,0.466,0.252,0.229,southeast,0.6,No
2015/02/04,15:40,0.515,0.363,0.595,0.543,0.466,0.253,0.228,south,0.8,No
2015/02/04,15:50,0.512,0.364,0.594,0.543,0.469,0.253,0.227,south-southeast,0.7,No
2015/02/04,16:00,0.514,0.362,0.596,0.542,0.466,0.254,0.228,east-southeast,0.8,No
2015/02/04,16:10,0.513,0.362,0.597,0.544,0.466,0.253,0.229,south-southwest,0.6,No
2015/02/04,16:20,0.513,0.362,0.595,0.543,0.466,0.253,0.227,east,0.7,No
2015/02/04,16:30,0.514,0.364,0.596,0.544,0.468,0.254,0.226,-,CALM,No
2015/02/04,16:40,0.515,0.363,0.595,0.544,0.466,0.253,0.228,south,1.1,No
2015/02/04,16:50,0.514,0.363,0.597,0.542,0.468,0.255,0.226,south-southwest,1.1,No
2015/02/04,17:00,0.513,0.363,0.595,0.543,0.468,0.252,0.228,-,CALM,No
2015/02/04,17:10,0.517,0.362,0.596,0.543,0.467,0.253,0.228,-,CALM,No
2015/02/04,17:20,0.515,0.362,0.595,0.543,0.466,0.253,0.228,-,CALM,No
2015/02/04,17:30,0.513,0.363,0.596,0.542,0.467,0.253,0.229,south-southwest,0.6,No
2015/02/04,17:40,0.514,0.362,0.596,0.543,0.467,0.253,0.228,south-southeast,0.6,No
2015/02/04,17:50,0.517,0.363,0.595,0.544,0.468,0.252,0.227,south,0.8,No
2015/02/04,18:00,0.513,0.361,0.597,0.544,0.467,0.253,0.226,south,1.4,No
2015/02/04,18:10,0.513,0.363,0.598,0.543,0.468,0.254,0.228,south,1.1,No
2015/02/04,18:20,0.515,0.363,0.596,0.542,0.468,0.253,0.227,south-southwest,1.4,No
2015/02/04,18:30,0.512,0.362,0.597,0.544,0.468,0.253,0.228,south,1.3,No
2015/02/04,18:40,0.514,0.363,0.597,0.544,0.469,0.252,0.228,south-southeast,0.8,No
2015/02/04,18:50,0.514,0.363,0.598,0.543,0.469,0.254,0.228,-,CALM,No
2015/02/04,19:00,0.517,0.363,0.598,0.543,0.467,0.254,0.228,west-southwest,0.7,No
2015/02/04,19:10,0.516,0.362,0.598,0.543,0.465,0.256,0.228,west-southwest,0.6,No
2015/02/04,19:20,0.514,0.363,0.596,0.543,0.467,0.253,0.227,-,CALM,No
2015/02/04,19:30,0.515,0.364,0.596,0.543,0.468,0.252,0.229,-,CALM,No
2015/02/04,19:40,0.515,0.362,0.599,0.543,0.470,0.254,0.229,-,CALM,No
2015/02/04,19:50,0.515,0.361,0.597,0.545,0.468,0.254,0.228,west-southwest,0.7,No
2015/02/04,20:00,0.515,0.362,0.597,0.544,0.468,0.254,0.227,southwest,1.3,No
2015/02/04,20:10,0.515,0.363,0.598,0.543,0.468,0.254,0.229,southwest,1.4,No
2015/02/04,20:20,0.514,0.363,0.597,0.544,0.468,0.254,0.227,southwest,1.5,No
2015/02/04,20:30,0.516,0.362,0.597,0.544,0.466,0.253,0.228,southwest,1.0,No
2015/02/04,20:40,0.517,0.364,0.597,0.544,0.467,0.254,0.228,south-southwest,1.6,No
2015/02/04,20:50,0.516,0.362,0.599,0.543,0.468,0.254,0.228,south-southwest,1.3,No
2015/02/04,21:00,0.515,0.363,0.598,0.546,0.468,0.253,0.228,south-southwest,1.5,No
2015/02/04,21:10,0.513,0.364,0.599,0.545,0.467,0.253,0.228,south-southwest,0.9,No
2015/02/04,21:20,0.516,0.363,0.596,0.545,0.466,0.254,0.228,south-southwest,0.8,No
2015/02/04,21:30,0.515,0.362,0.600,0.544,0.467,0.255,0.227,south-southwest,0.9,No
2015/02/04,21:40,0.516,0.364,0.598,0.545,0.469,0.254,0.229,-,CALM,No
2015/02/04,21:50,0.515,0.362,0.597,0.545,0.467,0.253,0.228,southwest,0.8,No
2015/02/04,22:00,0.517,0.363,0.597,0.544,0.467,0.254,0.227,south-southwest,1.1,No
2015/02/04,22:10,0.515,0.363,0.598,0.544,0.467,0.253,0.229,south-southwest,1.2,No
2015/02/04,22:20,0.515,0.364,0.599,0.546,0.469,0.253,0.229,south-southwest,2.4,No
2015/02/04,22:30,0.516,0.364,0.598,0.544,0.467,0.254,0.229,south-southwest,2.2,No
2015/02/04,22:40,0.513,0.362,0.599,0.544,0.467,0.254,0.229,south-southwest,2.1,No
2015/02/04,22:50,0.516,0.362,0.600,0.542,0.468,0.254,0.229,south-southwest,1.7,No
2015/02/04,23:00,0.516,0.364,0.600,0.544,0.467,0.254,0.229,south-southwest,1.7,No
2015/02/04,23:10,0.516,0.363,0.599,0.544,0.470,0.253,0.227,south,2.1,No
2015/02/04,23:20,0.517,0.362,0.599,0.545,0.468,0.255,0.227,south,1.8,No
2015/02/04,23:30,0.516,0.363,0.598,0.544,0.467,0.254,0.228,south-southwest,1.7,No
2015/02/04,23:40,0.515,0.364,0.598,0.544,0.468,0.254,0.228,south-southwest,1.7,No
2015/02/04,23:50,0.516,0.363,0.600,0.544,0.468,0.255,0.228,south-southwest,3.0,No
